Palmer, AK

6:12 PM AKDT on April 28, 2017 (GMT -0800)
Palmer Municipal

Weather History for PAAQ - August, 2013

Change the Weather History Date:

Sunday, August 25, 2013

  Actual Average Record
Temperature  
Mean Temperature 52 °F -  
Max Temperature 64 °F 62 °F 74 °F (1979)
Min Temperature 39 °F 45 °F 30 °F (1965)
Degree Days  
Heating Degree Days 14    
Growing Degree Days 2 (Base 50)    
Moisture  
Dew Point 44 °F    
Average Humidity 76    
Maximum Humidity 100    
Minimum Humidity 46    
Precipitation  
Precipitation 0.00 in - - ()
Sea Level Pressure  
Sea Level Pressure 29.71 in    
Wind  
Wind Speed 1 mph (SE)    
Max Wind Speed 8 mph    
Max Gust Speed -    
Visibility 10 miles    
Events      
Averages and records for this station are not official NWS values.
T = Trace of Precipitation, MM = Missing Value Source: NWS Daily Summary

Daily Weather History Graph

Daily Weather History Graph

Search for Another Location

Airport or City:

Trip Planner

Search our weather history database for the weather conditions in past years. The results will help you decide how hot, cold, wet, or windy it might be!

Date:

Astronomy

Aug. 25, 2013 Rise Set
Actual Time 6:30 AM AKDT 9:24 PM AKDT
Civil Twilight 5:39 AM AKDT 10:14 PM AKDT
Nautical Twilight 4:29 AM AKDT 11:23 PM AKDT
Astronomical Twilight 2:30 AM AKDT 1:36 AM AKDT
Moon 10:10 PM AKDT (8/25) 1:30 PM AKDT (8/25)
Length of Visible Light 16h 34m
Length of Day
14h 54m
Waning Gibbous, 74% of the Moon is Illuminated
Aug 25
Waning Gibbous
Aug 28
Last Quarter
Sep 5
New
Sep 12
First Quarter
Sep 19
Full

Hourly Weather History & Observations

Time (AKDT) Temp. Windchill Dew Point Humidity Pressure Visibility Wind Dir Wind Speed Gust Speed Precip Events Conditions
12:53 AM 46.0 °F - 45.0 °F 96% 29.70 in 10.0 mi Calm Calm - N/A   Clear
1:53 AM 48.0 °F - 45.0 °F 89% 29.71 in 10.0 mi Calm Calm - N/A   Clear
2:53 AM 44.1 °F - 43.0 °F 96% 29.71 in 10.0 mi Calm Calm - N/A   Clear
3:53 AM 44.1 °F - 42.1 °F 93% 29.71 in 10.0 mi Calm Calm - N/A   Clear
4:53 AM 42.1 °F 40.2 °F 39.9 °F 92% 29.73 in 10.0 mi NE 3.5 mph - N/A   Clear
5:53 AM 41.0 °F - 39.9 °F 96% 29.73 in 10.0 mi Calm Calm - N/A   Clear
6:53 AM 39.0 °F 36.8 °F 39.0 °F 100% 29.74 in 10.0 mi ESE 3.5 mph - N/A   Clear
7:53 AM 41.0 °F - 39.9 °F 96% 29.74 in 10.0 mi Calm Calm - N/A   Clear
8:53 AM 46.9 °F - 43.0 °F 86% 29.74 in 10.0 mi Calm Calm - N/A   Clear
9:53 AM 50.0 °F - 42.1 °F 74% 29.73 in 10.0 mi SW 3.5 mph - N/A   Clear
10:53 AM 52.0 °F - 44.1 °F 74% 29.73 in 10.0 mi Calm Calm - N/A   Clear
11:53 AM 55.0 °F - 46.0 °F 72% 29.72 in 10.0 mi Calm Calm - N/A   Clear
12:53 PM 57.9 °F - 48.0 °F 70% 29.72 in 10.0 mi Calm Calm - N/A   Clear
1:53 PM 61.0 °F - 48.0 °F 62% 29.71 in 10.0 mi WSW 4.6 mph - N/A   Clear
2:53 PM 61.0 °F - 45.0 °F 56% 29.70 in 10.0 mi Variable 3.5 mph - N/A   Clear
3:53 PM 63.0 °F - 46.0 °F 54% 29.69 in 10.0 mi South 4.6 mph - N/A   Clear
4:53 PM 64.0 °F - 44.1 °F 48% 29.69 in 10.0 mi Calm Calm - N/A   Clear
5:53 PM 63.0 °F - 43.0 °F 48% 29.69 in 10.0 mi ESE 5.8 mph - N/A   Clear
6:53 PM 63.0 °F - 42.1 °F 46% 29.69 in 10.0 mi SSE 4.6 mph - N/A   Partly Cloudy
7:53 PM 61.0 °F - 44.1 °F 54% 29.69 in 10.0 mi Calm Calm - N/A   Clear
8:53 PM 57.0 °F - 46.9 °F 69% 29.70 in 10.0 mi Calm Calm - 0.00 in   Clear
9:53 PM 53.1 °F - 46.0 °F 77% 29.70 in 10.0 mi Calm Calm - N/A   Clear
10:53 PM 50.0 °F - 45.0 °F 83% 29.72 in 10.0 mi North 3.5 mph - N/A   Clear
11:53 PM 48.0 °F - 45.0 °F 89% 29.73 in 10.0 mi North 8.1 mph - N/A   Clear